Flag for U.S.A. Weather past 2 weeks in Shiprock, New Mexico, U.S.A.

Now
84 °F

Sunny.


Feels Like: 81 °F
Forecast: 59 / 86 °F
Wind: 7 mph from West

Location: Four Corners Regional Airport

Current Time: Sep 18, 2014 at 6:45:07 PM

Latest Report: Sep 18, 2014 at 5:53 PM


Visibility: 10 mi

Pressure: 29.77 "Hg

Humidity: 19%

Dew point: 38 °F

Location of ShiprockLocation

Historic Weather in Shiprock — Graph

°F

Shiprock temperature yesterday

Maximum temperature yesterday: 80 °F (at 4:53 PM)
Minimum temperature yesterday: 62 °F (at 6:53 AM)
Average temperature yesterday: 69 °F

Past Weeks' High & Low Weather Summary

 TemperatureHumidityPressure
High90 °F (Sep 3, 5:53 PM)97% (Sep 10, 12:53 AM)30.15 "Hg (Sep 10, 12:53 AM)
Low47 °F (Sep 11, 6:53 AM)10% (Sep 3, 5:53 PM)29.74 "Hg (Sep 3, 6:53 PM)
Average68 °F47%29.99 "Hg
* Reported Sep 3 5:53 PM — Sep 18 5:53 PM, Shiprock, Weather by CustomWeather, © 2014

Note: Actual official high and low records may vary slightly from our data, if they occured in-between our weather recording intervals... More about our weather records

Advertising

Shiprock weather history for previous 24 hours

 ConditionsComfort  
Time TempWeatherWind HumidityBarometerVisibility
5:53 PM
Sep 18
84 °FSunny.7 mph19%29.77 "Hg10 mi
4:53 PM85 °FSunny.6 mph20%29.78 "Hg10 mi
3:53 PM83 °FSunny.5 mph21%29.80 "Hg10 mi
2:53 PM82 °FSunny.3 mph22%29.82 "Hg10 mi
1:53 PM81 °FSunny.3 mph22%29.84 "Hg10 mi
12:53 PM79 °FSunny.6 mph27%29.87 "Hg10 mi
11:53 AM74 °FSunny.No wind37%29.90 "Hg10 mi
10:53 AM69 °FSunny.6 mph45%29.93 "Hg10 mi
9:53 AM65 °FSunny.6 mph54%29.95 "Hg10 mi
8:53 AM60 °FSunny.10 mph65%29.96 "Hg10 mi
7:53 AM56 °FClear.7 mph75%29.96 "Hg10 mi
6:53 AM52 °FClear.7 mph77%29.96 "Hg10 mi
5:53 AM55 °FClear.8 mph69%29.94 "Hg10 mi
4:53 AM54 °FClear.6 mph74%29.93 "Hg10 mi
3:53 AM55 °FClear.8 mph67%29.93 "Hg10 mi
2:53 AM58 °FClear.7 mph67%29.93 "Hg10 mi
1:53 AM61 °FClear.7 mph62%29.94 "Hg10 mi
12:53 AM62 °FClear.6 mph58%29.95 "Hg10 mi
11:53 PM
Sep 17
64 °FClear.6 mph54%29.95 "Hg10 mi
10:53 PM67 °FClear.6 mph49%29.95 "Hg10 mi
9:53 PM68 °FClear.8 mph49%29.96 "Hg10 mi
8:53 PM69 °FPassing clouds.6 mph45%29.95 "Hg10 mi
7:53 PM71 °FPassing clouds.15 mph41%29.94 "Hg10 mi
6:53 PM71 °FScattered clouds.12 mph39%29.93 "Hg10 mi
Weather by CustomWeather, © 2014

See weather overviewHow to use our weather pages